This is the latest recevied weather packets stored in our database for station/object KY4LEX. If no packets are shown the sender has not sent any weather packets the latest 10 day(s).
| Time | Temp. | Humidity | Pressure | Rain* | Wind** | Luminosity | Snow |
|---|---|---|---|---|---|---|---|
| 1777475612 | 16.67° C | 99% | 1014.9 hPa | 1.27 mm | - | 83 W/m² | - |
| 1777475309 | 16.67° C | 99% | 1014.9 hPa | 0 mm | - | 105 W/m² | - |
| 1777475004 | 16.67° C | 99% | 1015 hPa | 1.78 mm | - | 84 W/m² | - |
| 1777474701 | 16.67° C | 99% | 1015.1 hPa | 1.78 mm | - | 85 W/m² | - |
| 1777474397 | 16.67° C | 99% | 1015 hPa | 1.27 mm | - | 84 W/m² | - |
| 1777474094 | 16.67° C | 99% | 1015 hPa | 3.05 mm | - | 80 W/m² | - |
| 1777473792 | 16.67° C | 99% | 1015.3 hPa | 3.05 mm | - | 67 W/m² | - |
| 1777473488 | 16.11° C | 99% | 1015.1 hPa | 3.05 mm | - | 80 W/m² | - |
| 1777473183 | 16.11° C | 99% | 1015.1 hPa | 4.83 mm | - | 77 W/m² | - |
| 1777472881 | 16.11° C | 99% | 1015.2 hPa | 3.05 mm | - | 83 W/m² | - |
| 1777472577 | 16.67° C | 99% | 1015 hPa | 3.05 mm | - | 99 W/m² | - |
| 1777472274 | 16.67° C | 99% | 1015.2 hPa | 1.78 mm | - | 114 W/m² | - |
| 1777471970 | 16.67° C | 99% | 1015.1 hPa | 1.78 mm | - | 84 W/m² | - |
| 1777471667 | 16.11° C | 99% | 1015.2 hPa | 1.78 mm | - | 163 W/m² | - |
| 1777471363 | 16.11° C | 99% | 1015.4 hPa | 0 mm | - | 88 W/m² | - |
| 1777471060 | 16.11° C | 99% | 1015.6 hPa | 1.27 mm | - | 80 W/m² | - |
| 1777470756 | 16.11° C | 99% | 1015.4 hPa | 1.27 mm | - | 100 W/m² | - |
| 1777470453 | 16.11° C | 99% | 1015.6 hPa | 1.78 mm | - | 90 W/m² | - |
| 1777470150 | 16.11° C | 99% | 1015.5 hPa | 1.78 mm | - | 68 W/m² | - |
| 1777469846 | 16.11° C | 99% | 1015.6 hPa | 1.27 mm | - | 41 W/m² | - |
| 1777469542 | 16.11° C | 99% | 1015.7 hPa | 7.11 mm | - | 56 W/m² | - |
| 1777469242 | 16.11° C | 99% | 1015.9 hPa | 6.1 mm | - | 43 W/m² | - |
| 1777468937 | 16.11° C | 99% | 1015.7 hPa | 4.83 mm | - | 68 W/m² | - |
| 1777468634 | 16.11° C | 99% | 1016.2 hPa | 4.32 mm | - | 55 W/m² | - |
| 1777468330 | 16.11° C | 99% | 1016 hPa | 1.27 mm | - | 35 W/m² | - |
* Rain latest hour (hover to see other rain measurements)
** Current wind speed in m/s (hover to see current wind gust speed)